Location: Gleizolles
(44.4833°N, 6.7667°E)
Time: 00:44:41
(UTC+00:00)

Vanguard 1 Rocket - Pass Details

Date: 02 July 2024
Orbit: 650 x 4220 km, 34.3° (Epoch: 24 July)

Event Time Altitude Azimuth Distance (km) Brightness Sun altitude
Rises 21:23:26 0° 206° (SSW) 3,738 10.2 -16.0°
Enters shadow 21:24:44 - 200° (SSW) 3,407 10.0 -16.1°
Reaches altitude 10° 21:26:08 10° 192° (SSW) 3,109 - -16.2°
Exits shadow 21:28:22 18° 175° (S) 2,803 9.3 -16.4°
Maximum altitude 21:32:21 25° 139° (SE) 2,881 9.3 -16.8°
Drops below altitude 10° 21:42:13 10° 92° (E) 5,132 10.9 -17.6°
Sets 21:48:25 0° 82° (E) 6,825 11.7 -18.1°
